When you browse on this site, cookies collect data to enhance your experience and personalize the content and advertising you see.
Visit our Privacy Policy to learn more. By continuing to use the site, you agree to this use of cookies and data.
  • în România
  • Lista ţărilor
  • Pe 7 zile
  • Temperatura apei
  • Hartă satelitară
  • Meteo pe hartă
  • Widget-uri
  • user-avatar
    Intrare

    Meteo pe oră la Dudachnyy

    Astăzi, 21 Mai, Marţi

    Timp Temperatura Precipitaţii Vânt Presiune Umiditate
    00:00 +4°C° 0 mm 3 m/s 757 mmHg 74%
    01:00 +4°C° 0 mm 3 m/s 757 mmHg 75%
    02:00 +4°C° 0 mm 3 m/s 757 mmHg 77%
    03:00 +4°C° 0 mm 3 m/s 757 mmHg 83%
    04:00 +5°C° 0 mm 3 m/s 757 mmHg 79%
    05:00 +7°C° 0 mm 3 m/s 758 mmHg 76%
    06:00 +7°C° 0 mm 4 m/s 758 mmHg 73%
    07:00 +10°C° 0.1 mm 4 m/s 758 mmHg 65%
    08:00 +10°C° 0.1 mm 5 m/s 758 mmHg 57%
    09:00 +12°C° 0 mm 5 m/s 758 mmHg 49%
    10:00 +13°C° 0 mm 5 m/s 758 mmHg 48%
    11:00 +13°C° 0 mm 5 m/s 758 mmHg 46%
    12:00 +14°C° 0 mm 5 m/s 758 mmHg 44%
    13:00 +14°C° 0 mm 5 m/s 758 mmHg 44%
    14:00 +14°C° 0 mm 5 m/s 758 mmHg 44%
    15:00 +14°C° 0 mm 5 m/s 758 mmHg 44%
    16:00 +14°C° 0 mm 4 m/s 758 mmHg 47%
    17:00 +14°C° 0 mm 3 m/s 758 mmHg 51%
    18:00 +14°C° 0 mm 2 m/s 758 mmHg 54%
    19:00 +13°C° 0 mm 2 m/s 758 mmHg 57%
    20:00 +12°C° 0 mm 2 m/s 758 mmHg 60%
    21:00 +10°C° 0 mm 2 m/s 758 mmHg 63%
    22:00 +9°C° 0 mm 3 m/s 758 mmHg 63%
    23:00 +9°C° 0 mm 3 m/s 758 mmHg 64%

    Mâine, 22 Mai, Miercuri

    Timp Temperatura Precipitaţii Vânt Presiune Umiditate
    00:00 +8°C° 0 mm 3 m/s 758 mmHg 64%
    01:00 +8°C° 0 mm 3 m/s 758 mmHg 66%
    02:00 +8°C° 0 mm 3 m/s 758 mmHg 67%
    03:00 +7°C° 0 mm 3 m/s 758 mmHg 69%
    04:00 +9°C° 0 mm 3 m/s 758 mmHg 68%
    05:00 +10°C° 0 mm 3 m/s 758 mmHg 67%
    06:00 +11°C° 0 mm 3 m/s 757 mmHg 66%
    07:00 +12°C° 0.1 mm 3 m/s 757 mmHg 65%
    08:00 +13°C° 0.1 mm 3 m/s 757 mmHg 65%
    09:00 +14°C° 0.1 mm 2 m/s 757 mmHg 65%
    10:00 +14°C° 1.2 mm 2 m/s 756 mmHg 71%
    11:00 +12°C° 1.2 mm 3 m/s 756 mmHg 77%
    12:00 +11°C° 1.2 mm 3 m/s 756 mmHg 84%
    13:00 +12°C° 0.7 mm 3 m/s 755 mmHg 83%
    14:00 +13°C° 0.7 mm 3 m/s 755 mmHg 83%
    15:00 +13°C° 0.7 mm 3 m/s 755 mmHg 83%
    16:00 +15°C° 0.7 mm 2 m/s 754 mmHg 82%
    17:00 +16°C° 0.7 mm 1 m/s 754 mmHg 82%
    18:00 +18°C° 0.7 mm 1 m/s 754 mmHg 82%
    19:00 +16°C° 0.2 mm 1 m/s 754 mmHg 82%
    20:00 +15°C° 0.2 mm 2 m/s 754 mmHg 83%
    21:00 +15°C° 0.2 mm 2 m/s 754 mmHg 84%
    22:00 +13°C° 0 mm 3 m/s 753 mmHg 82%
    23:00 +13°C° 0 mm 4 m/s 753 mmHg 81%

    Poimâine, 23 Mai, Joi

    Timp Temperatura Precipitaţii Vânt Presiune Umiditate
    00:00 +13°C° 0 mm 5 m/s 753 mmHg 79%
    01:00 +12°C° 0 mm 5 m/s 753 mmHg 79%
    02:00 +12°C° 0 mm 5 m/s 752 mmHg 79%
    03:00 +12°C° 0 mm 5 m/s 752 mmHg 80%
    04:00 +13°C° 0 mm 5 m/s 752 mmHg 77%
    05:00 +13°C° 0 mm 4 m/s 752 mmHg 74%
    06:00 +14°C° 0 mm 4 m/s 752 mmHg 71%
    07:00 +15°C° 0 mm 5 m/s 752 mmHg 65%
    08:00 +17°C° 0 mm 6 m/s 751 mmHg 59%
    09:00 +19°C° 0 mm 6 m/s 751 mmHg 53%
    10:00 +20°C° 0 mm 7 m/s 751 mmHg 49%
    11:00 +21°C° 0 mm 7 m/s 750 mmHg 45%
    12:00 +22°C° 0 mm 8 m/s 750 mmHg 40%
    13:00 +22°C° 0 mm 8 m/s 750 mmHg 41%
    14:00 +23°C° 0 mm 8 m/s 749 mmHg 41%
    15:00 +23°C° 0 mm 8 m/s 749 mmHg 42%
    16:00 +22°C° 0 mm 7 m/s 749 mmHg 46%
    17:00 +21°C° 0 mm 6 m/s 748 mmHg 49%
    18:00 +20°C° 0 mm 5 m/s 748 mmHg 53%
    19:00 +19°C° 0 mm 4 m/s 747 mmHg 59%
    20:00 +17°C° 0 mm 4 m/s 747 mmHg 65%
    21:00 +15°C° 0 mm 4 m/s 747 mmHg 71%
    22:00 +15°C° 0 mm 5 m/s 747 mmHg 73%
    23:00 +15°C° 0 mm 5 m/s 746 mmHg 76%

    24 Mai, Vineri

    Timp Temperatura Precipitaţii Vânt Presiune Umiditate
    00:00 +14°C° 0 mm 5 m/s 746 mmHg 79%
    01:00 +14°C° 0.2 mm 5 m/s 746 mmHg 83%
    02:00 +14°C° 0.2 mm 5 m/s 746 mmHg 87%
    03:00 +13°C° 0.2 mm 5 m/s 746 mmHg 91%
    04:00 +13°C° 0.7 mm 5 m/s 746 mmHg 91%
    05:00 +13°C° 0.7 mm 5 m/s 747 mmHg 92%
    06:00 +13°C° 0.7 mm 5 m/s 747 mmHg 93%
    07:00 +13°C° 0.5 mm 5 m/s 747 mmHg 88%
    08:00 +11°C° 0.5 mm 6 m/s 748 mmHg 83%
    09:00 +11°C° 0.5 mm 6 m/s 748 mmHg 78%
    10:00 +13°C° 0 mm 6 m/s 749 mmHg 70%
    11:00 +14°C° 0 mm 6 m/s 749 mmHg 62%
    12:00 +15°C° 0 mm 6 m/s 750 mmHg 55%
    13:00 +15°C° 0 mm 6 m/s 750 mmHg 54%
    14:00 +15°C° 0 mm 6 m/s 751 mmHg 54%
    15:00 +15°C° 0 mm 6 m/s 751 mmHg 53%
    16:00 +15°C° 0 mm 6 m/s 751 mmHg 55%
    17:00 +14°C° 0 mm 5 m/s 752 mmHg 58%
    18:00 +13°C° 0 mm 5 m/s 752 mmHg 60%
    19:00 +12°C° 0 mm 4 m/s 753 mmHg 64%
    20:00 +10°C° 0 mm 4 m/s 754 mmHg 67%
    21:00 +9°C° 0 mm 3 m/s 754 mmHg 71%
    22:00 +8°C° 0 mm 3 m/s 755 mmHg 71%
    23:00 +8°C° 0 mm 3 m/s 755 mmHg 72%

    25 Mai, Sâmbătă

    Timp Temperatura Precipitaţii Vânt Presiune Umiditate
    00:00 +7°C° 0 mm 2 m/s 755 mmHg 72%
    01:00 +7°C° 0 mm 2 m/s 756 mmHg 72%
    02:00 +6°C° 0 mm 2 m/s 756 mmHg 72%
    03:00 +6°C° 0 mm 2 m/s 756 mmHg 72%
    04:00 +7°C° 0 mm 2 m/s 757 mmHg 69%
    05:00 +8°C° 0 mm 2 m/s 757 mmHg 66%
    06:00 +9°C° 0 mm 2 m/s 758 mmHg 62%
    07:00 +10°C° 0 mm 2 m/s 758 mmHg 56%
    08:00 +12°C° 0 mm 2 m/s 758 mmHg 49%
    09:00 +13°C° 0 mm 3 m/s 758 mmHg 43%
    10:00 +13°C° 0 mm 3 m/s 758 mmHg 41%
    11:00 +14°C° 0 mm 3 m/s 758 mmHg 40%
    12:00 +16°C° 0 mm 2 m/s 758 mmHg 38%
    13:00 +17°C° 0 mm 2 m/s 757 mmHg 37%
    14:00 +17°C° 0 mm 2 m/s 757 mmHg 37%
    15:00 +18°C° 0 mm 2 m/s 757 mmHg 36%
    16:00 +17°C° 0 mm 2 m/s 757 mmHg 40%
    17:00 +17°C° 0 mm 2 m/s 757 mmHg 45%
    18:00 +17°C° 0 mm 2 m/s 756 mmHg 49%
    19:00 +14°C° 0 mm 3 m/s 757 mmHg 52%
    20:00 +12°C° 0 mm 3 m/s 757 mmHg 56%
    21:00 +11°C° 0 mm 3 m/s 757 mmHg 59%
    22:00 +10°C° 0 mm 4 m/s 757 mmHg 60%
    23:00 +10°C° 0 mm 4 m/s 756 mmHg 62%

    26 Mai, Duminică

    Timp Temperatura Precipitaţii Vânt Presiune Umiditate
    00:00 +8°C° 0 mm 4 m/s 756 mmHg 63%
    01:00 +8°C° 0 mm 5 m/s 756 mmHg 63%
    02:00 +8°C° 0 mm 5 m/s 756 mmHg 63%
    03:00 +8°C° 0 mm 5 m/s 756 mmHg 63%
    04:00 +9°C° 0 mm 6 m/s 756 mmHg 62%
    05:00 +9°C° 0 mm 6 m/s 756 mmHg 61%
    06:00 +10°C° 0 mm 6 m/s 755 mmHg 60%
    07:00 +12°C° 0 mm 7 m/s 755 mmHg 57%
    08:00 +15°C° 0 mm 7 m/s 755 mmHg 53%
    09:00 +16°C° 0 mm 8 m/s 755 mmHg 50%
    10:00 +17°C° 0 mm 8 m/s 754 mmHg 49%
    11:00 +18°C° 0 mm 8 m/s 754 mmHg 47%
    12:00 +20°C° 0 mm 8 m/s 753 mmHg 46%
    13:00 +18°C° 0.5 mm 7 m/s 753 mmHg 54%
    14:00 +16°C° 0.5 mm 7 m/s 752 mmHg 62%
    15:00 +15°C° 0.5 mm 6 m/s 752 mmHg 70%
    16:00 +15°C° 0.1 mm 6 m/s 751 mmHg 67%
    17:00 +16°C° 0.1 mm 7 m/s 750 mmHg 65%
    18:00 +16°C° 0.1 mm 7 m/s 750 mmHg 63%
    19:00 +16°C° 0 mm 7 m/s 749 mmHg 65%
    20:00 +17°C° 0 mm 7 m/s 749 mmHg 67%
    21:00 +17°C° 0 mm 7 m/s 748 mmHg 69%
    22:00 +17°C° 0.2 mm 7 m/s 748 mmHg 72%
    23:00 +17°C° 0.2 mm 7 m/s 748 mmHg 74%
    Arată mai mult